Regional Weather Roundup
Issued by NWS

Home | Current Version | Previous Version | Text Only | Print | Product List | Glossary On
Versions: 1 2 3 4 5 6 7 8 9 10 11 12 13 14 15 16 17 18 19 20 21 22 23 24 25 26 27 28 29 30 31 32 33 34 35 36 37 38 39 40 41 42 43 44 45 46 47 48 49 50
000
ASUS43 KMKX 261421
RWRWI

WISCONSIN REGIONAL WEATHER ROUNDUP
NATIONAL WEATHER SERVICE MILWAUKEE/SULLIVAN WI
900 AM CDT TUE MAY 26 2015

NOTE: "FAIR" INDICATES FEW OR NO CLOUDS BELOW 12,000 FEET WITH NO
SIGNIFICANT WEATHER AND/OR OBSTRUCTIONS TO VISIBILITY.

WIZ001-002-006>008-014>016-023>028-261500-
NORTHWEST WISCONSIN

CITY           SKY/WX    TMP DP  RH WIND       PRES   REMARKS
SUPERIOR ARPT  CLOUDY    54  53  99 E3        29.86S
ASHLAND        CLOUDY    53  52  96 VRB5      29.87S FOG
HAYWARD        CLOUDY    57  55  93 NE6       29.85S FOG
SIREN          CLOUDY    55  54  97 NE6       29.84F FOG
CUMBERLAND     FOG       55  55 100 NE3       29.84R VSB 1/4
RICE LAKE      CLOUDY    59  58  96 CALM      29.85R
CHETEK         CLOUDY    60  60 100 CALM      29.84R
LADYSMITH      CLOUDY    61  60  97 E3        29.86S FOG
EAU CLAIRE     CLOUDY    64  61  90 CALM      29.82S
MENOMONIE      CLOUDY    62  61  97 CALM      29.83S
NEW RICHMOND   CLOUDY    58  58 100 CALM      29.83S
OSCEOLA        CLOUDY    56  56 100 N3        29.86R FOG
$$

WIZ003>005-009-010-017-018-261500-
NORTH CENTRAL WISCONSIN

CITY           SKY/WX    TMP DP  RH WIND       PRES   REMARKS
MANITOWISH WTR CLOUDY    63  61  93 CALM      29.85R
ARBOR VITAE    CLOUDY    62  61  96 S6        29.86F FOG
WOODRUFF       CLOUDY    62  61  96 S6        29.86F FOG
RHINELANDER    CLOUDY    64  60  87 SW8       29.87S
EAGLE RIVER    CLOUDY    63  61  96 SW5       29.86S
LAND O LAKES   CLOUDY    63  60  89 SW3       29.87S
PHILLIPS       CLOUDY    60  60  99 CALM      29.85S
TOMAHAWK       CLOUDY    62  61  94 CALM      29.86S
MEDFORD        CLOUDY    63  61  92 CALM      29.85S
MERRILL        CLOUDY    66  62  87 CALM      29.86S
$$

WIZ029-030-035-036-043>047-261500-
CENTRAL WISCONSIN

CITY           SKY/WX    TMP DP  RH WIND       PRES   REMARKS
WAUSAU         CLOUDY    67  63  87 S5        29.84S
MOSINEE        MOSUNNY   66  64  94 S5        29.86F
MARSHFIELD     CLOUDY    66  61  84 S6        29.84S
STEVENS POINT  CLOUDY    66  61  84 CALM      29.85F
WAUPACA        CLOUDY    70  66  88 CALM      29.85F
WAUTOMA        CLOUDY    71  66  84 S6        29.85S
WISC RAPIDS    CLOUDY    66  61  84 SE3       29.85F
CAMP DOUGLAS   CLOUDY    66  66 100 E6        29.82S
$$

WIZ011>013-019>022-031-037>040-048>050-261500-
NORTHEAST WISCONSIN

CITY           SKY/WX    TMP DP  RH WIND       PRES   REMARKS
ANTIGO         PTSUNNY   67  62  84 SW7       29.87S
SHAWANO        PTSUNNY   70  63  80 SW3       29.86F
OCONTO         MOSUNNY   72  65  80 SW5       29.85F
STURGEON BAY   SUNNY     66  61  82 S5        29.89F
GREEN BAY      PTSUNNY   72  66  81 SW7       29.86F
MANITOWOC      RAIN      63  58  83 SE9       29.88F
APPLETON       MOSUNNY   70  63  78 S8        29.87S
CLINTONVILLE   PTSUNNY   68  63  83 S6        29.86S
OSHKOSH        CLOUDY    73  66  78 S16       29.85F
$$

WIZ032>034-041-042-053>061-261500-
SOUTHWEST WISCONSIN

CITY           SKY/WX    TMP DP  RH WIND       PRES   REMARKS
LA CROSSE      LGT RAIN  64  61  90 S3        29.82R
SPARTA         CLOUDY    64  61  89 CALM      29.82F
VIROQUA        CLOUDY    65  63  95 SE7       29.81S
BOSCOBEL       RAIN      67  62  84 S5G17     29.81S
PRAIRIE DU CHI RAIN      64  61  89 W6        29.80R
PLATTEVILLE    CLOUDY    67  66  96 SE8       29.81F
$$

WIZ056-057-062-063-064-067-068-261500-
SOUTH CENTRAL WISCONSIN

CITY           SKY/WX    TMP DP  RH WIND       PRES   REMARKS
REEDSBURG      CLOUDY    68  65  89 SE6       29.81F
BARABOO/DELLS  CLOUDY    68  64  85 S10       29.83F
LONE ROCK      CLOUDY    69  65  86 SE12      29.82F
MINERAL POINT  RAIN      68  66  94 SE8       29.83F
MADISON        CLOUDY    69  65  86 S9        29.84F
MIDDLETON      CLOUDY    70  67  92 SE9       29.85F
WATERTOWN      CLOUDY    68  68 100 S7        29.87S
MONROE         CLOUDY    68  64  88 SE10G16   29.83F
JANESVILLE     CLOUDY    70  66  88 SE13G18   29.87F
$$

WIZ051-052-058>065-066-070>072-261500-
SOUTHEAST WISCONSIN

CITY           SKY/WX    TMP DP  RH WIND       PRES   REMARKS
MILWAUKEE      CLOUDY    71  64  78 S16G23    29.91S
WAUKESHA       CLOUDY    68  64  88 S14       29.91F
MILWAUKEE/TIMM MOSUNNY   72  63  73 S15       29.91S
RACINE         CLOUDY    63  59  87 S9        29.94S
BURLINGTON     CLOUDY    66  64  91 S7        29.91S FOG
KENOSHA        CLOUDY    70  64  81 S9        29.91F
FOND DU LAC    CLOUDY    71  66  84 S14       29.87F
SHEBOYGAN      PTSUNNY   70  65  84 S5        29.88F
WEST BEND      CLOUDY    70  64  83 S6        29.89S
JUNEAU         CLOUDY    67  65  91 S12       29.89R
$$

LSZ147-162-261500-
LAKE SUPERIOR

STATION/POSITION TIME  TEMP    WIND        PRES    WAVE
                       AIR SEA DIR/SP/G            HT/PER
                 (UTC) (F)     (DEG/KT/KT) (MB)    (FT/S)
W MID LAKE BUOY  1350   42 37  260/  4/  4   N/A     1
DEVILS ISLAND    1400   47     210/  5/  5   N/A
PORT WING        1300   46     320/  2/  3   N/A
SAXON HARBOR     1300   49        CALM       N/A
$$

LMZ867-665-643>646-261500-
LAKE MICHIGAN

STATION/POSITION TIME  TEMP    WIND        PRES    WAVE
                       AIR SEA DIR/SP/G            HT/PER
                 (UTC) (F)     (DEG/KT/KT) (MB)    (FT/S)
CHAMBERS ISLAND  1300   67     180/  5/  9   N/A
N MID LAKE BUOY  1350   43 37  200/ 16/ 17   N/A     2/ 4
NORTHPORT PIER   1300   57     150/  6/  9   N/A
SISTER BAY       1348   70     160/  8/ 10   N/A
KEWAUNEE LAKESHO 1300   49     180/ 12/ 14   N/A
SHEBOYGAN LAKESH 1400   49     160/ 15/ 16   N/A
PORT WASHINGTON  1300   53     170/  5/  7   N/A
ATWATER BUOY     1400   53 47  160/ 17/ 19   N/A
MILWAUKEE LAKESH 1400   56     150/ 17/ 20   N/A
S MID LAKE BUOY  1350   49 38  170/ 14/ 16   N/A     1/ 3
KENOSHA   LAKESH 1300   53     160/ 12/ 15   N/A
$$

TC  - TEMPERATURE IN CELSIUS
VSB - VISIBILITY IN STATUTE MILES
WCI - WIND CHILL INDEX
HX  - HEAT INDEX



USA.gov is the U.S. government's official web portal to all federal, state and local government web resources and services.